www.pogodaiklimat.ru

Погода и климат >> Архив погоды >> Индонезия >> Сурабая Геданган


ПОГОДА в Сурабая Геданган

  • Прогноз погоды в Сурабая Геданган
  • Монитор погоды в Сурабая Геданган

АРХИВ ПОГОДЫ в Сурабая Геданган

Время (UTC), дата Ветер
(напр.,м/с)
 
Видим.   Явления Облачность Т
(С)
Тd
(С)
f
(%)
Тe
(С)
Тes
(С)
Комфортность P
(гПа)
Po
(гПа)
Тmin
(С)
Tmax
(С)
R
(мм)
R24
(мм)
S
(см)
09 20.05 В 5 11 км 3/3 600 м
[Cu med, cong Ci fib]
+33.2 +23.2 56 +44 +45 опасность
перегрева
1009.8 1009.4
12 20.05 ЮВ 2 10 км 4/3 600 м
[Cu hum Ci fib]
+29.9 +23.2 67 +40 +40 очень
душно
1010.8 1010.4 +35.7
15 20.05 ЮВ 2 9000 м 4/1 600 м
[Cu hum Ci fib]
+28.7 +23.5 74 +39 +39 очень
душно
1012.3 1011.9
18 20.05 ЮВ 1 8000 м 5/1 600 м
[Cu hum Ac trans Ci fib]
+28.0 +24.3 80 +39 +39 очень
душно
1011.5 1011.1
21 20.05 В 1 8000 м 4/1 600 м
[Cu hum Ci fib]
+26.9 +24.0 84 +37 +37 очень
душно
1011.2 1010.8
00 21.05 Ю 1 10 км 1/0
[Ci fib]
+26.2 +23.4 85 +36 +38 очень
душно
1012.6 1012.2 +25.7
03 21.05 ЮВ 5 12 км ясно +32.9 +23.7 59 +44 +53 опасность
перегрева
1012.5 1012.1
06 21.05 ЮВ 4 12 км 1/0
[Ci fib]
+35.5 +22.6 47 +45 +54 опасность
перегрева
1010.4 1010.1
09 21.05 ЮВ 3 11 км 1/1 600 м
[Cu hum]
+33.1 +22.5 54 +43 +44 опасность
перегрева
1009.1 1008.7
12 21.05 Ю 3 9000 м 1/1 600 м
[Cu hum]
+30.1 +23.8 69 +41 +41 опасность
перегрева
1010.6 1010.2 +36.1
15 21.05 ЮВ 2 9000 м ясно +29.1 +24.8 78 +42 +42 опасность
перегрева
1012.2 1011.9
18 21.05 З 1 9000 м ясно +28.0 +24.5 81 +39 +39 очень
душно
1012.1 1011.8
21 21.05 Ю 2 9000 м ясно +26.2 +23.6 86 +36 +36 очень
душно
1011.7 1011.3
00 22.05 ЮВ 1 9000 м 3/0
[Ci fib]
+26.1 +23.3 85 +35 +38 очень
душно
1012.6 1012.2 +25.6
03 22.05 В 3 11 км 3/0
[Ac trans Ci fib]
+31.8 +23.9 63 +43 +55 опасность
перегрева
1012.3 1012.0
06 22.05 ЮВ 6 12 км 3/0
[Ci fib]
+35.2 +22.9 49 +45 +50 опасность
перегрева
1009.9 1009.6
09 22.05 В 3 12 км 3/3 600 м
[Cu hum Ci fib]
+33.8 +22.8 53 +44 +45 опасность
перегрева
1009.0 1008.6
12 22.05 Ю 2 10 км 1/0
[Ci fib]
+30.4 +25.0 73 +44 +44 опасность
перегрева
1010.4 1010.1 +35.8
15 22.05 В 1 10 км 1/0
[Ci fib]
+29.0 +24.7 78 +41 +41 опасность
перегрева
1012.3 1012.0
18 22.05 штиль 0 10 км 1/0
[Ci fib]
+28.4 +25.2 83 +41 +41 опасность
перегрева
1011.9 1011.5
21 22.05 З 1 10 км 3/0
[Ci fib]
+27.0 +24.0 84 +37 +37 очень
душно
1011.8 1011.4
00 23.05 СВ 1 10 км 1/1 600 м
[Cu hum]
+26.8 +23.5 82 +36 +39 очень
душно
1012.8 1012.5 +26.0
03 23.05 В 3 11 км 3/3 600 м
[Cu hum]
+33.0 +25.0 63 +47 +55 опасность
перегрева
1012.9 1012.5
06 23.05 Ю 2 12 км 1/1 600 м
[Cu hum]
+35.8 +24.2 51 +48 +60 опасность
перегрева
1011.0 1010.6
09 23.05 В 6 11 км 3/1 600 м
[Cu hum Ac trans Ci fib]
+33.8 +23.2 54 +44 +45 опасность
перегрева
1009.6 1009.3
12 23.05 ЮВ 5 9000 м 4/1 600 м
[Cu hum Ci fib]
+30.4 +23.7 67 +41 +41 опасность
перегрева
1011.7 1011.3 +35.8
15 23.05 В 2 9000 м 3/1 600 м
[Cu hum Ci fib]
+29.4 +25.4 79 +43 +43 опасность
перегрева
1012.4 1012.1
18 23.05 З 2 8000 м 4/3 600 м
[Cu hum Ac trans Ci fib]
+28.2 +25.0 83 +41 +41 опасность
перегрева
1011.8 1011.5
21 23.05 Ю 1 8000 м 4/1 600 м
[Cu hum Ci fib]
+26.9 +24.3 86 +38 +38 очень
душно
1010.8 1010.4
00 24.05 СЗ 2 9000 м 3/0
[Ci fib]
+26.7 +24.0 85 +37 +39 очень
душно
1012.3 1012.0 +26.3
03 24.05 штиль 0 50 км ?/? +33.5 +24.2 58 +45 +45 опасность
перегрева
1011.8 1011.4
06 24.05 ЮВ 4 12 км ясно +35.1 +23.3 51 +46 +56 опасность
перегрева
1010.2 1009.8
09 24.05 ЮВ 5 12 км ясно +33.2 +22.9 55 +43 +44 опасность
перегрева
1009.4 1009.0
12 24.05 ЮВ 3 9000 м ясно +29.7 +22.2 64 +39 +39 очень
душно
1010.9 1010.5 +35.5
15 24.05 ЮВ 3 9000 м 1/0
[Ci fib]
+28.8 +23.4 73 +39 +39 очень
душно
1011.9 1011.5
18 24.05 Ю 1 8000 м 1/0
[Ci fib]
+27.6 +23.3 77 +37 +37 очень
душно
1010.8 1010.5
21 24.05 СЗ 2 8000 м 1/0
[Ci fib]
+25.5 +22.3 82 +33 +33 очень
душно
1010.6 1010.2
00 25.05 ЮЗ 1 10 км ясно +25.4 +22.0 81 +33 +36 очень
душно
1012.5 1012.1 +24.8
03 25.05 В 5 11 км ясно +32.2 +23.2 59 +43 +51 опасность
перегрева
1011.9 1011.6
06 25.05 ЮВ 3 12 км ясно +33.7 +22.7 53 +44 +55 опасность
перегрева
1009.3 1008.9
09 25.05 ЮВ 4 12 км 1/1 700 м
[Sc]
+31.9 +22.7 58 +42 +43 опасность
перегрева
1008.7 1008.3
12 25.05 ЮВ 4 8000 м ясно +29.4 +22.8 68 +39 +39 очень
душно
1010.5 1010.2 +34.4
15 25.05 В 3 8000 м 1/1 600 м
[Cu med, cong]
+28.3 +23.6 76 +39 +39 очень
душно
1011.3 1010.9
18 25.05 штиль 0 8000 м 9/0
[Ac As]
+27.8 +24.3 81 +39 +39 очень
душно
1010.4 1010.1
21 25.05 штиль 0 8000 м ясно +26.2 +23.3 84 +35 +35 очень
душно
1010.0 1009.6
00 26.05 В 1 10 км 1/0
[Ci fib]
+26.3 +23.0 82 +35 +38 очень
душно
1011.4 1011.0 +25.2
03 26.05 ЮВ 4 12 км 1/1 600 м
[Cu hum]
+32.6 +23.2 58 +43 +52 опасность
перегрева
1011.2 1010.9
06 26.05 В 2 12 км 3/3 600 м
[Cu hum Ci fib]
+35.5 +23.4 50 +46 +56 опасность
перегрева
1009.3 1008.9
09 26.05 С 4 11 км 3/1 600 м
[Cu hum Ci fib]
+33.0 +23.5 58 +44 +45 опасность
перегрева
1008.6 1008.2
12 26.05 Ю 2 9000 м 3/0
[As trans Ci fib]
+29.6 +24.7 75 +42 +42 опасность
перегрева
1009.8 1009.5 +36.0
15 26.05 ЮВ 5 9000 м 1/0
[Ci fib]
+28.8 +24.5 78 +41 +41 опасность
перегрева
1010.8 1010.4
18 26.05 Ю 2 9000 м 4/1 600 м
[Cu hum Ci fib]
+28.2 +24.7 81 +40 +40 очень
душно
1009.9 1009.5
21 26.05 Ю 1 9000 м 3/0
[As trans Ci fib]
+27.0 +24.0 84 +37 +37 очень
душно
1009.8 1009.4
00 27.05 ЮЗ 1 9000 м 4/1 600 м
[Cu hum Ac trans Ci fib]
+27.3 +23.9 82 +38 +40 очень
душно
1011.6 1011.2 +26.1
03 27.05 ЮВ 2 12 км 1/1 600 м
[Cu med, cong]
+32.7 +24.6 62 +45 +59 опасность
перегрева
1011.4 1011.1
06 27.05 ЮВ 3 12 км 1/1 600 м
[Cu med, cong]
+35.2 +24.0 52 +47 +57 опасность
перегрева
1008.7 1008.3

 

Местоположение метеостанции Сурабая Геданган (Индонезия): широта -7.22 долгота 113.71 высота над уровнем моря 113 м.

В архиве по умолчанию представлена погода в Сурабая Геданган за последнюю неделю. Архивные данные за месяц целиком и за предыдущие месяцы, начиная с января 2011 года, Вы можете получить, выбрав интересующий диапазон дат из раскрывающегося списка и нажав кнопку "Ввод!".


*Определитесь, кто Вы:
робот инопланетянин человек

Внимание! Время в таблицах - всемирное. Для получения местного времени необходимо прибавить поправку, которая равна 7 ч.

Смотрите также архив погоды в соседних городах и на ближайших метеорологических станциях:

Погода в Калиянджете (Индонезия) (33 км)
Погода в Аэропорту Джуанда (Индонезия) (106 км)
Погода в Сурабая Перак (Индонезия) (110 км)
Погода в Банюванги (Индонезия) (134 км)
Погода в Сангкапуре (Индонезия) (194 км)
Погода в Денпасаре (Индонезия) (233 км)
Погода в Матараме (Индонезия) (297 км)
Погода в Семаранге (Индонезия) (365 км)
Погода в Аэропорту Ахмад Яни (Индонезия) (369 км)
Погода в Сумбава-Бесаре (Индонезия) (431 км)

Пояснения к столбцам:

Ветер - указаны скорость ветра в м/с - средняя за 10 мин, порывы в срок и между сроками (в фигурных скобках) и направление, откуда дует ветер: С - северный, СВ - северо-восточный, В - восточный, ЮВ - юго-восточный, Ю - южный, ЮЗ - юго-западный, З - западный, СЗ - северо-западный.
Видимость - горизонтальная дальность видимости в метрах или километрах. При видимости от 1 до 10 км при отсутствии осадков обычно наблюдается дымка, при ухудшении видимости до 1 км и менее - туман. В сухую погоду видимость может ухудшаться дымом, пылью или мглою.
Явления - указаны атмосферные явления, наблюдавшиеся в срок или в последний час перед сроком; фигурными скобками обозначены явления, наблюдавшиеся между сроками (за 1-3 часа до срока); квадратными скобками обозначены град или гололедные отложения с указанием их диаметра в мм.
Облачность - указаны через наклонную черту общая и нижняя облачность в баллах и высота нижней границы облаков в метрах; квадратными скобками обозначены формы облаков: Ci - перистые, Cs - перисто-слоистые, Cc - перисто-кучевые, Ac - высококучевые, As - высокослоистые, Sc - слоисто-кучевые, Ns - слоисто-дождевые, Cu - кучевые, Cb - кучево-дождевые. Подробнее классификацию облаков см. в Атласе облаков (PDF).
T - Температура воздуха - температура, измеренная на высоте 2 м над землей.
Td - Температура точки росы - температура, при понижении до которой содержащийся в воздухе водяной пар достигнет насыщения.
f - Относительная влажность воздуха - влажноcть воздуха, измеренная на высоте 2 м над землей.
Te - Эффективная температура - температура, которую ощущает одетый по сезону человек в тени. Характеристика душности погоды. При расчете учитывается влияние влажности воздуха и скорости ветра на теплоощущения человека.
Tes - Эффективная температура на солнце - температура, которую ощущает человек, с поправкой на солнечный нагрев. Характеристика знойности погоды. Зависит от высоты солнца над горизонтом, облачности и скорости ветра. Ночью, в пасмурную погоду, а также при ветре 12 м/с и более поправка равна нулю.
P - Атмосферное давление - приведенное к уровню моря атмосферное давление.
Po - Атмосферное давление - измеренное на уровне метеостанции атмосферное давление.
Tmin - Минимальная температура - минимум температуры воздуха на высоте 2 м над землей.
Tmax - Максимальная температура - максимум температуры воздуха на высоте 2 м над землей.
R - Количество осадков - Количество выпавших осадков за период времени, мм. При наведении курсора мыши на число - период времени, за который выпало указанное количество осадков.
R24 - Количество осадков - Количество выпавших осадков за 24 часа, мм.
S - Снежный покров - Высота снежного покрова, см. При наведении курсора мыши на число - состояние снежного покрова и степень покрытия местности в баллах.